FW5864 Weather Reports


Display with metric or nautical units.
time (UTC)temp
F
wind
direction
speed
MPH
gust
MPH
rain 1hr
in
rain 24hr
in
rain mn
in
humidity
%
barometer
mb
20260504130507 58 168 0.0 6.0 0.00 0.00 0.00 75 1004.6
20260504110506 42 239 0.0 0.0 0.00 0.00 0.00 86 1005.0
20260504100505 44 239 0.0 0.0 0.00 0.00 0.00 84 1005.3
20260504082004 48 237 0.0 2.0 0.00 0.00 0.00 79 1006.0
20260504081004 48 237 2.0 2.0 0.00 0.00 0.00 82 1006.0
20260504080504 48 241 1.0 2.0 0.00 0.00 0.00 81 1006.0
20260504050502 54 234 1.0 3.0 0.00 0.00 0.00 75 1007.8
20260504050002 54 231 2.0 3.0 0.00 0.00 0.00 74 1007.7
20260504045502 54 232 0.0 2.0 0.00 0.00 0.00 74 1007.7
20260504045002 54 232 1.0 2.0 0.00 0.00 0.00 74 1007.7
20260504044502 54 229 0.0 1.0 0.00 0.00 0.00 74 1007.7
20260504044002 54 229 1.0 1.0 0.00 0.00 0.00 73 1007.7
20260504043502 54 229 0.0 1.0 0.00 0.00 0.00 73 1007.7
20260504043002 55 229 0.0 2.0 0.00 0.00 0.00 73 1007.7
20260504042502 55 229 0.0 2.0 0.00 0.00 0.00 73 1007.8
20260504042002 56 229 1.0 2.0 0.00 0.00 0.00 72 1007.9
20260504041502 56 224 1.0 2.0 0.00 0.00 0.00 72 1007.9
20260504041002 56 229 1.0 3.0 0.00 0.00 0.00 72 1008.0
20260504040502 57 230 1.0 3.0 0.00 0.00 0.00 71 1008.0
20260504040002 57 222 1.0 2.0 0.00 0.00 0.00 71 1008.1
20260504035502 57 228 1.0 2.0 0.00 0.00 0.00 70 1008.0
20260504035002 58 223 2.0 4.0 0.00 0.00 0.00 69 1008.0
20260504034501 58 223 2.0 4.0 0.00 0.00 0.00 69 1008.1
20260504033502 58 222 2.0 4.0 0.00 0.00 0.00 68 1008.1
20260504032501 58 227 3.0 5.0 0.00 0.00 0.00 68 1008.2
20260504032001 58 232 2.0 5.0 0.00 0.00 0.00 69 1008.1
20260504031501 58 218 2.0 4.0 0.00 0.00 0.00 68 1008.1
20260504030501 58 231 3.0 4.0 0.00 0.00 0.00 68 1008.2
20260504030001 57 239 2.0 3.0 0.00 0.00 0.00 68 1008.1
20260504025501 58 223 1.0 3.0 0.00 0.00 0.00 67 1008.0
20260504025001 58 205 1.0 2.0 0.00 0.00 0.00 66 1008.0
20260504024501 58 227 1.0 2.0 0.00 0.00 0.00 65 1008.0
20260504024001 58 241 2.0 4.0 0.00 0.00 0.00 65 1008.0
20260504023001 59 222 0.0 3.0 0.00 0.00 0.00 63 1008.1
20260504022501 59 215 2.0 3.0 0.00 0.00 0.00 63 1008.0
20260504022001 59 219 2.0 3.0 0.00 0.00 0.00 62 1008.0
20260504021000 60 196 1.0 3.0 0.00 0.00 0.00 60 1008.1
20260504020500 61 222 1.0 4.0 0.00 0.00 0.00 59 1008.0
20260504015500 62 217 3.0 5.0 0.00 0.00 0.00 57 1008.0
20260504015000 62 242 1.0 5.0 0.00 0.00 0.00 56 1007.9
20260504014501 62 249 2.0 6.0 0.00 0.00 0.00 56 1007.9
20260504014000 63 234 1.0 7.0 0.00 0.00 0.00 56 1008.0
20260504013500 63 240 2.0 7.0 0.00 0.00 0.00 56 1008.0
20260504013000 63 226 3.0 6.0 0.00 0.00 0.00 56 1007.9
20260504012500 63 217 5.0 6.0 0.00 0.00 0.00 55 1007.9
20260504011500 64 215 4.0 7.0 0.00 0.00 0.00 55 1007.9
20260504011000 64 206 4.0 6.0 0.00 0.00 0.00 54 1007.8
20260504010500 64 231 3.0 6.0 0.00 0.00 0.00 54 1007.8
20260504010000 65 254 3.0 7.0 0.00 0.00 0.00 54 1007.7
20260504005000 66 276 6.0 8.0 0.00 0.00 0.00 53 1007.7
20260504003959 67 233 3.0 10.0 0.00 0.00 0.00 52 1007.7
20260504003500 67 249 5.0 9.0 0.00 0.00 0.00 51 1007.8
20260504002959 68 244 7.0 8.0 0.00 0.00 0.00 51 1007.8
20260504001459 69 257 4.0 10.0 0.00 0.00 0.00 49 1007.9
20260504000959 69 250 5.0 10.0 0.00 0.00 0.00 48 1007.9
20260503235959 70 224 5.0 13.0 0.00 0.00 0.00 47 1008.0
20260503235459 70 258 7.0 16.0 0.00 0.00 0.00 47 1007.9
20260503234959 71 238 11.0 16.0 0.00 0.00 0.00 46 1007.8
20260503234459 71 235 4.0 14.0 0.00 0.00 0.00 46 1007.8
20260503233959 71 249 9.0 17.0 0.00 0.00 0.00 47 1007.8
20260503232959 71 265 14.0 15.0 0.00 0.00 0.00 46 1007.7
20260503232529 71 221 8.0 15.0 0.00 0.00 0.00 46 1007.8
20260503231959 72 233 11.0 15.0 0.00 0.00 0.00 45 1007.9
20260503231459 72 214 5.0 14.0 0.00 0.00 0.00 47 1008.0
20260503230959 71 254 7.0 14.0 0.00 0.00 0.00 48 1007.9
20260503230459 71 251 8.0 13.0 0.00 0.00 0.00 49 1007.9
20260503225958 70 237 7.0 14.0 0.00 0.00 0.00 49 1007.9
20260503225459 70 257 10.0 14.0 0.00 0.00 0.00 49 1007.9
20260503224958 70 254 11.0 14.0 0.00 0.00 0.00 48 1007.9
20260503224458 70 244 10.0 16.0 0.00 0.00 0.00 48 1008.0
20260503223959 69 257 13.0 17.0 0.00 0.00 0.00 48 1008.0
20260503223459 69 234 7.0 19.0 0.00 0.00 0.00 48 1007.9
20260503222959 70 252 12.0 19.0 0.00 0.00 0.00 48 1008.0
20260503222528 70 252 12.0 18.0 0.00 0.00 0.00 48 1008.0
20260503221958 70 246 10.0 18.0 0.00 0.00 0.00 47 1008.0
20260503220458 70 263 12.0 23.0 0.00 0.00 0.00 50 1008.3
20260503215958 70 242 13.0 23.0 0.00 0.00 0.00 48 1008.2
20260503214958 70 252 13.0 21.0 0.00 0.00 0.00 48 1008.1
20260503214458 70 253 18.0 21.0 0.00 0.00 0.00 48 1008.2
20260503213958 70 257 15.0 21.0 0.00 0.00 0.00 48 1008.2
20260503213458 71 251 18.0 21.0 0.00 0.00 0.00 48 1008.4
20260503212958 71 262 14.0 23.0 0.00 0.00 0.00 48 1008.4
20260503211957 71 232 18.0 21.0 0.00 0.00 0.00 48 1008.4
20260503211458 71 248 13.0 25.0 0.00 0.00 0.00 47 1008.5
20260503210957 71 271 14.0 29.0 0.00 0.00 0.00 48 1008.5
20260503210528 71 268 15.0 29.0 0.00 0.00 0.00 46 1008.5
20260503205957 71 260 21.0 21.0 0.00 0.00 0.00 47 1008.6
20260503205457 71 248 15.0 23.0 0.00 0.00 0.00 49 1008.7
20260503204957 70 271 8.0 23.0 0.00 0.00 0.00 50 1008.7
20260503204457 69 226 9.0 18.0 0.00 0.00 0.00 50 1008.8
20260503203957 69 225 16.0 21.0 0.00 0.00 0.00 49 1008.8
20260503203457 69 250 12.0 23.0 0.00 0.00 0.00 49 1008.8
20260503202957 69 250 12.0 23.0 0.00 0.00 0.00 48 1009.0
20260503202457 70 223 9.0 27.0 0.00 0.00 0.00 47 1009.2
20260503201957 70 243 13.0 27.0 0.00 0.00 0.00 48 1009.2
20260503201457 69 254 12.0 24.0 0.00 0.00 0.00 48 1009.1
20260503200956 69 170 15.0 26.0 0.00 0.00 0.00 48 1008.9
20260503195957 69 210 12.0 21.0 0.00 0.00 0.00 48 1008.9
20260503195456 68 254 19.0 22.0 0.00 0.00 0.00 50 1008.8
20260503194457 67 265 9.0 24.0 0.00 0.00 0.00 51 1009.3
20260503193956 68 222 10.0 24.0 0.00 0.00 0.00 51 1009.3
20260503193456 68 255 19.0 19.0 0.00 0.00 0.00 50 1009.3
20260503192956 68 254 9.0 21.0 0.00 0.00 0.00 48 1009.2
20260503192456 68 215 10.0 26.0 0.00 0.00 0.00 48 1009.0
20260503191956 68 263 20.0 26.0 0.00 0.00 0.00 48 1009.1
20260503191457 69 229 7.0 24.0 0.00 0.00 0.00 46 1009.4
20260503190956 70 237 11.0 24.0 0.00 0.00 0.00 46 1009.6
20260503190456 69 249 17.0 23.0 0.00 0.00 0.00 48 1009.8
20260503190026 69 251 16.0 21.0 0.00 0.00 0.00 45 1009.7
20260503185456 70 213 13.0 22.0 0.00 0.00 0.00 46 1009.7
20260503184956 69 252 20.0 25.0 0.00 0.00 0.00 47 1009.8
20260503184456 69 213 10.0 27.0 0.00 0.00 0.00 47 1010.0
20260503183956 68 186 8.0 27.0 0.00 0.00 0.00 47 1010.0
20260503183456 68 266 19.0 19.0 0.00 0.00 0.00 48 1010.0
20260503182956 68 228 6.0 18.0 0.00 0.00 0.00 47 1009.8
20260503182456 67 234 6.0 27.0 0.00 0.00 0.00 49 1009.9
20260503181956 67 227 9.0 27.0 0.00 0.00 0.00 47 1009.9
20260503181526 67 224 11.0 18.0 0.00 0.00 0.00 45 1009.9
20260503180956 68 223 10.0 19.0 0.00 0.00 0.00 46 1010.1
20260503180456 68 213 11.0 19.0 0.00 0.00 0.00 45 1010.2
20260503175956 68 219 12.0 19.0 0.00 0.00 0.00 46 1010.4
20260503175455 67 210 5.0 15.0 0.00 0.00 0.00 48 1010.3
20260503174025 66 213 2.0 14.0 0.00 0.00 0.00 50 1010.7
20260503172955 65 209 6.0 15.0 0.00 0.00 0.00 47 1010.6
20260503172455 65 224 11.0 17.0 0.00 0.00 0.00 47 1010.6
20260503171955 65 229 15.0 17.0 0.00 0.00 0.00 48 1010.9
20260503171455 65 183 3.0 10.0 0.00 0.00 0.00 49 1010.9
20260503171025 65 246 4.0 9.0 0.00 0.00 0.00 49 1011.0
20260503170455 65 224 5.0 13.0 0.00 0.00 0.00 51 1011.1
20260503150953 54 217 3.0 4.0 0.00 0.00 0.00 64 1013.6
20260503150453 54 154 0.0 5.0 0.00 0.00 0.00 65 1013.7